Regional Weather Roundup
Issued by NWS

Home | Current Version | Previous Version | Graphics & Text | Print | Product List | Glossary On
Versions: 1 2 3 4 5 6 7 8 9 10 11 12 13 14 15 16 17 18 19 20 21 22 23 24 25 26 27 28 29 30 31 32 33 34 35 36 37 38 39 40 41 42 43 44 45 46 47 48 49 50
000
ASUS45 KSLC 291810
RWRUT

UTAH REGIONAL WEATHER ROUNDUP
NATIONAL WEATHER SERVICE SALT LAKE CITY UT
1200 PM MDT FRI AUG 29 2014

UTZ001>011-023>025-291900-

NORTHERN UTAH

CITY           SKY/WX    TMP DP  RH WIND       PRES   REMARKS
HILL AFB       SUNNY     76  49  38 E7        30.12F
LOGAN          SUNNY     74  51  44 N5        30.10F
OGDEN          SUNNY     78  46  32 S5        30.10F
PROVO AIRPORT  MOSUNNY   73  48  40 CALM      30.14F
SALT LAKE CITY MOSUNNY   81  46  29 SE12      30.08F
VERNAL         SUNNY     69  54  58 S6        30.19F
WENDOVER       SUNNY     77  39  25 E7        30.08F
HEBER CITY     SUNNY     68  46  45 CALM      30.20F
WEST JORDAN    SUNNY     79  54  41 SE16      30.12F

$$

UTZ012>022-026-027-291900-

SOUTHERN UTAH

CITY           SKY/WX    TMP DP  RH WIND       PRES   REMARKS
BRYCE CANYON   SUNNY     72  35  25 CALM      30.34F
CEDAR CITY     SUNNY     80  31  16 W5        30.18F
MILFORD        SUNNY     82  36  19 S10       30.13F
MOAB/CYNLANDS  SUNNY     80  47  31 CALM      30.13F
PRICE          SUNNY     75  42  30 S6        30.22F
ST GEORGE      CLEAR     82  46  28 CALM      30.03F

$$

REGIONAL REPORTS     COLORADO/ARIZONA

CITY           SKY/WX    TMP DP  RH WIND       PRES   REMARKS
CRAIG, CO      SUNNY     72  49  44 VRB3      30.24F
GRAND JUNCTION SUNNY     74  50  42 VRB3      30.17F
RIFLE          SUNNY     70  47  43 CALM      30.21F
MONTROSE       SUNNY     72  47  40 VRB3      30.24F
CORTEZ         SUNNY     76  40  27 VRB6      30.21F
PAGE, AZ       SUNNY     82  44  26 NW5       30.12F
GRAND CANYON   SUNNY     77  30  17 N12       30.27S
KINGMAN        SUNNY     93  35  13 VRB3      30.03F
FLAGSTAFF      SUNNY     75  38  26 VRB3      30.30F

$$

REGIONAL REPORTS    NEVADA/IDAHO/WYOMING

CITY           SKY/WX    TMP DP  RH WIND       PRES   REMARKS
LAS VEGAS, NV  MOSUNNY   94  32  11 VRB3      29.90F
ELY            SUNNY     80  31  16 SW6       30.20F
ELKO           MOSUNNY   79  35  20 NE3       30.11F
POCATELLO, ID  SUNNY     80  44  27 E3        30.08F
BURLEY         SUNNY     76  50  40 VRB3      30.05F
EVANSTON, WY   SUNNY     71  38  29 SW8       30.28S
ROCK SPRINGS   SUNNY     69  38  32 W12G17    30.24F

$$



USA.gov is the U.S. government's official web portal to all federal, state and local government web resources and services.